Location: Foulognes
(49.1413°N, 0.8183°W)
Time: 22:47:26
(UTC+00:00)

STARLINK-54 - Pass Details

Date: 21 October 2019
Orbit: 548 x 551 km, 53.0° (Epoch: 16 November)

Event Time Altitude Azimuth Distance (km) Brightness Sun altitude
Rises 19:11:13 0° 287° (WNW) 2,719 8.6 -21.7°
Reaches altitude 10° 19:13:29 10° 292° (WNW) 1,825 7.3 -22.1°
Maximum altitude 19:17:34 55° 11° (NNE) 666 3.9 -22.8°
Enters shadow 19:17:34 55° 11° (NNE) 666 3.9 -22.8°
